Location: Eitze
(52.9840°N, 9.6894°E)
Time: 00:08:01
(UTC+00:00)

Cosmos 2184 Rocket - Pass Details

Date: 19 May 2025
Orbit: 959 x 1000 km, 82.9° (Epoch: 15 June)

Event Time Altitude Azimuth Distance (km) Brightness Sun altitude
Rises 19:51:28 0° 348° (NNW) 3,675 8.0 -4.5°
Reaches altitude 10° 19:53:59 10° 346° (NNW) 2,729 7.4 -4.8°
Maximum altitude 20:00:11 69° 265° (W) 1,047 4.4 -5.5°
Drops below altitude 10° 20:06:25 10° 183° (S) 2,739 6.0 -6.2°
Sets 20:08:56 0° 181° (S) 3,689 6.6 -6.4°
